This demonstration page uses our WeatherBlox Daily Observations layout. Learn more.

Left ArrowRight Arrow

44.89941, -97.11507

Hourly Observations for September 24, 2022

Temp ( °F °C ) Dew Point ( °F °C ) Humidity (%) Winds ( mph kmh ) Pressure ( in mb ) Visibility ( mi km ) Precip ( " mm )
12:53 am 00:53 Cloudy 54 12.2 53 11.7 97 97 SSE 5 7 29.81 1009 10 16 0.00 0.00
1:53 am 01:53 Clear 50 10 50 10 100 100 SE 6 9 29.80 1009 8 13 0.00 0.00
2:53 am 02:53 Clear with Mist and Fog 50 10 49 9.4 96 96 SSE 5 7 29.80 1009 3 4 0.00 0.00
3:05 am 03:05 Clear with Mist and Fog 47 8.3 47 8.3 100 100 Calm 29.83 1010 2 3 0.00 0.00
3:15 am 03:15 Clear with Mist and Fog 49 9.4 49 9.4 100 100 SSW 6 9 29.81 1010 1 2 0.00 0.00
3:25 am 03:25 Clear with Mist and Fog 47 8.3 47 8.3 100 100 S 5 7 29.83 1010 2 3 0.00 0.00
3:34 am 03:34 Mostly Clear with Mist and Fog 48 8.9 47 8.3 96 96 Calm 29.82 1010 1 2 0.00 0.00
3:46 am 03:46 Mostly Cloudy with Mist and Fog 49 9.4 49 9.4 100 100 Calm 29.81 1010 2 3 0.00 0.00
3:53 am 03:53 Mostly Cloudy with Mist and Fog 49 9.4 49 9.4 100 100 Calm 29.81 1009 5 8 0.00 0.00
4:09 am 04:09 Partly Cloudy with Mist and Fog 49 9.4 49 9.4 100 100 SSE 3 6 29.81 1010 2 3 0.00 0.00
4:18 am 04:18 Partly Cloudy with Mist and Fog 49 9.4 49 9.4 100 100 SSE 3 6 29.81 1010 3 5 0.00 0.00
4:53 am 04:53 Clear 49 9.4 48 8.9 97 97 S 3 6 29.81 1009 8 13 0.00 0.00
5:01 am 05:01 Clear with Mist and Fog 47 8.3 47 8.3 100 100 Calm 29.83 1010 2 3 0.00 0.00
5:08 am 05:08 Clear with Mist and Fog 48 8.9 48 8.9 100 100 Calm 29.83 1010 3 5 0.00 0.00
5:53 am 05:53 Cloudy 49 9.4 48 8.9 97 97 SW 6 9 29.82 1010 9 14 0.00 0.00
6:53 am 06:53 Mostly Clear 48 8.9 46 7.8 93 93 WSW 6 9 29.82 1010 10 16 0.00 0.00
7:53 am 07:53 Sunny 48 8.9 46 7.8 93 93 WSW 6 9 29.82 1010 10 16 0.00 0.00
8:53 am 08:53 Sunny 54 12.2 50 10 86 86 WNW 10 17 29.83 1010 10 16 0.00 0.00
9:53 am 09:53 Mostly Sunny 57 13.9 51 10.6 80 80 WNW 12 19 29.86 1011 10 16 0.00 0.00
10:53 am 10:53 Mostly Sunny 59 15 49 9.4 69 69 WNW 15 24 29.87 1012 10 16 0.00 0.00
11:53 am 11:53 Mostly Sunny 60 15.6 49 9.4 67 67 WNW 16 26 29.88 1012 10 16 0.00 0.00
12:53 pm 12:53 Partly Cloudy 60 15.6 48 8.9 64 64 WNW 16 26 29.89 1012 10 16 0.00 0.00
1:53 pm 13:53 Mostly Cloudy 63 17.2 48 8.9 58 58 WNW 17 28 29.89 1012 10 16 0.00 0.00
2:53 pm 14:53 Cloudy with Light Rain 61 16.1 49 9.4 64 64 W 14 22 29.89 1012 10 16 0.01 0.13
3:53 pm 15:53 Mostly Cloudy 62 16.7 49 9.4 62 62 NW 16 26 29.89 1012 10 16 0.01 0.13
4:53 pm 16:53 Mostly Cloudy 62 16.7 50 10 65 65 W 16 26 29.90 1013 10 16 0.00 0.00
5:53 pm 17:53 Cloudy 61 16.1 50 10 67 67 W 10 17 29.91 1013 10 16 0.00 0.00
6:53 pm 18:53 Mostly Sunny 61 16.1 51 10.6 70 70 WNW 8 13 29.92 1013 10 16 0.00 0.00
7:53 pm 19:53 Mostly Clear 59 15 51 10.6 75 75 W 8 13 29.93 1013 10 16 0.00 0.00
8:53 pm 20:53 Clear 59 15 50 10 72 72 WNW 10 17 29.94 1014 10 16 0.00 0.00
9:53 pm 21:53 Clear 58 14.4 49 9.4 72 72 NW 12 19 29.96 1014 10 16 0.00 0.00
10:53 pm 22:53 Clear 57 13.9 48 8.9 72 72 WNW 9 15 29.98 1015 10 16 0.00 0.00
11:53 pm 23:53 Clear 57 13.9 47 8.3 69 69 W 10 17 29.99 1016 10 16 0.00 0.00

Powered by AerisWeather